Regional Weather Roundup
Issued by NWS

Home | Current Version | Previous Version | Text Only | Print | Product List | Glossary Off
Versions: 1 2 3 4 5 6 7 8 9 10 11 12 13 14 15 16 17 18 19 20 21 22 23 24 25 26 27 28 29

000
ASUS45 KGTF 171710
RWRMT
MONTANA HOURLY WEATHER ROUNDUP
NATIONAL WEATHER SERVICE GREAT FALLS MT
1100 AM MDT FRI APR 17 2015

NOTE: "FAIR" INDICATES FEW OR NO CLOUDS BELOW 12000 FEET WITH NO
SIGNIFICANT WEATHER AND/OR OBSTRUCTIONS TO VISIBILITY.

MTZ001>007-043-171800-
WEST OF THE DIVIDE

CITY           SKY/WX    TMP DP  RH WIND       PRES   REMARKS
KALISPELL      SUNNY     50  32  50 SE5       30.20F
MISSOULA       SUNNY     48  31  51 S3        30.23F
BUTTE          SUNNY     48  24  39 CALM      30.24F
DEER LODGE       N/A     50  28  43 CALM      30.26F
EUREKA           N/A     50  32  50 SW3       30.20F
HAMILTON         N/A     54  28  37 S3        30.21F
LIBBY            N/A     52  34  50 NW6       30.20F
$$

MTZ008-052>055-171800-
SOUTHWEST MONTANA

CITY           SKY/WX    TMP DP  RH WIND       PRES   REMARKS
BOZEMAN        SUNNY     47  29  49 CALM      30.25F
DILLON         SUNNY     46  26  45 W3        30.23F
$$

MTZ009-010-012-014-046-048-049-054-171800-
EAST SLOPES AND CENTRAL MONTANA

CITY           SKY/WX    TMP DP  RH WIND       PRES   REMARKS
CUT BANK       SUNNY     52  28  39 CALM      30.18F
GREAT FALLS    SUNNY     54  27  35 VRB5      30.18F
MALMSTROM AFB  SUNNY     54  28  37 SW8       30.19F
HELENA         SUNNY     49  28  44 N5        30.23F
$$

MTZ011-013-016-021-045-047-050-051-171800-
NORTH CENTRAL MONTANA

CITY           SKY/WX    TMP DP  RH WIND       PRES   REMARKS
HAVRE          SUNNY     60  30  32 E18       30.17F
LEWISTOWN      SUNNY     57  31  37 N5        30.20S
FORT BENTON      N/A     57  28  33 SW8       30.19F
$$

MTZ017>020-022>042-056>058-061-062-171800-
EASTERN PLAINS

CITY           SKY/WX    TMP DP  RH WIND       PRES   REMARKS
BAKER          SUNNY     59  26  28 N7        30.21F
BILLINGS       SUNNY     53  34  48 S9        30.19F
GLASGOW        SUNNY     60  29  30 VRB3      30.19S
JORDAN           N/A     61  29  29 VRB6      30.18S
LIVINGSTON     SUNNY     53  27  36 VRB5      30.22F
MILES CITY     SUNNY     59  29  31 VRB5      30.19F
SIDNEY         SUNNY     64  30  27 SW8       30.19F
WOLF POINT     SUNNY     60  30  32 VRB3      30.19S
BIG TIMBER       N/A     54  27  35 W7        30.22F
FORSYTH          N/A     57  32  38 W6        30.18F
PLENTYWOOD       N/A     61  25  25 N15       30.18R
POPLAR           N/A     61  28  29 SW3       30.20S
$$

REGIONAL REPORTS...DAKOTAS

CITY           SKY/WX    TMP DP  RH WIND       PRES   REMARKS
WILLISTON      SUNNY     65  26  23 NW7       30.18R
MINOT          SUNNY     67  25  20 NW16G23   30.12R
DICKINSON      SUNNY     64  18  17 NW8       30.17S
BEACH          FAIR      61  25  25 W9        30.21S
CROSBY         FAIR      59  28  31 N12G20    30.18R
WATFORD CITY   FAIR      63  27  25 W14G20    30.16F
BISMARCK       SUNNY     66  22  18 NW9       30.18F
GRAND FORKS    SUNNY     69  19  15 W15G24    30.08F
FARGO          SUNNY     68  22  17 SW13G21   30.12F
BUFFALO SD       N/A     59  24  26 N5        30.15F
RAPID CITY     CLOUDY    53  33  46 N7        30.21S
$$

REGIONAL REPORTS...WYOMING/IDAHO/WASHINGTON

CITY           SKY/WX    TMP DP  RH WIND       PRES   REMARKS
GILLETTE       MOSUNNY   53  30  41 N6        30.22R
SHERIDAN       SUNNY     54  35  48 N5        30.21F
BUFFALO WY     SUNNY     54  30  40 NE8       30.22S
CODY           SUNNY     48  30  49 SE3       30.21S
YELLOWSTONE LA   N/A     39  23  52 SE3       30.24F
IDAHO FALLS    SUNNY     51  30  44 N6        30.19F
SALMON         SUNNY     46  27  46 CALM      30.23F
BOISE          SUNNY     57  30  35 VRB5      30.18F
SPOKANE        PTSUNNY   52  35  52 NE7       30.19F
$$

REGIONAL REPORTS...ALBERTA

CITY           SKY/WX    TMP DP  RH WIND       PRES   REMARKS
EDMONTON       PTSUNNY   50  25  37 S17G25    30.03F
CALGARY        PTSUNNY   54  27  35 S21G35    30.06F
LETHBRIDGE     MOSUNNY   52  30  43 SE7       30.16F
MEDICINE HAT   MOSUNNY   61  25  25 E13G21    30.15F
$$

REGIONAL REPORTS...SASKATCHEWAN

CITY           SKY/WX    TMP DP  RH WIND       PRES   REMARKS
SWIFT CURRENT  SUNNY     54  28  37 E9        30.18F
REGINA         SUNNY     54  27  35 N9        30.21R
SASKATOON      MOSUNNY   52  25  35 N6        30.21S
$$



USA.gov is the U.S. government's official web portal to all federal, state and local government web resources and services.